Home   Weather   Laredo   Past weeks

Flag for USA Past Weather in Laredo, Texas, USA — Yesterday and Last 2 Weeks

Now
89 °F

Sunny.


Feels Like: 95 °F
Forecast: 79 / 102 °F
Wind: 7 mph from South

Location: Laredo International Airport

Current Time: Jul 20, 2017 at 11:55:52 am

Latest Report: Jul 20, 2017 at 10:56 am


Visibility: 10 mi

Pressure: 30.09 "Hg

Humidity: 55%

Dew Point: 71 °F

Location of LaredoLocation

Past Weather in Laredo — Graph

°F

Laredo Temperature Yesterday

Maximum temperature yesterday: 102 °F (at 4:56 pm)
Minimum temperature yesterday: 76 °F (at 6:56 am)
Average temperature yesterday: 88 °F

High & Low Weather Summary for the Past Weeks

 TemperatureHumidityPressure
High103 °F (Jul 15, 4:56 pm)94% (Jul 12, 7:56 am)30.12 "Hg (Jul 12, 7:56 am)
Low73 °F (Jul 8, 3:56 am)26% (Jul 5, 5:56 pm)29.85 "Hg (Jul 16, 3:56 pm)
Average86 °F63%29.99 "Hg
* Reported Jul 5 9:56 am — Jul 20 9:56 am, Laredo. Weather by CustomWeather, © 2017

Note: Actual official high and low records may vary slightly from our data, if they occured in-between our weather recording intervals... More about our weather records

Advertising

Laredo Weather History for the Previous 24 Hours

Scroll right to see more
 ConditionsComfort  
Time TempWeatherWind HumidityBarometerVisibility
9:56 am
Thu, Jul 20
86 °FSunny.12 mph61%30.09 "Hg10 mi
8:56 am84 °FSunny.14 mph67%30.08 "Hg10 mi
7:56 am80 °FSunny.8 mph74%30.07 "Hg10 mi
5:56 am79 °FClear.8 mph77%30.05 "Hg10 mi
4:56 am80 °FClear.9 mph74%30.04 "Hg10 mi
3:56 am81 °FClear.10 mph72%30.04 "Hg10 mi
2:56 am82 °FClear.16 mph72%30.03 "Hg10 mi
1:56 am83 °FClear.14 mph70%30.05 "Hg10 mi
12:56 am85 °FClear.16 mph63%30.05 "Hg10 mi
11:56 pm
Wed, Jul 19
87 °FClear.17 mph57%30.04 "Hg10 mi
10:56 pm87 °FClear.13 mph65%30.02 "Hg10 mi
9:56 pm88 °FClear.13 mph61%30.01 "Hg10 mi
8:56 pm90 °FClear.20 mph54%29.98 "Hg10 mi
7:56 pm94 °FSunny.17 mph46%29.97 "Hg10 mi
6:56 pm97 °FPassing clouds.13 mph37%29.96 "Hg10 mi
6:14 pm91 °FBroken clouds.13 mph52%29.97 "Hg10 mi
4:56 pm102 °FScattered clouds.20 mph32%29.97 "Hg10 mi
3:56 pm100 °FScattered clouds.14 mph33%29.99 "Hg10 mi
2:56 pm100 °FPartly sunny.16 mph33%30.01 "Hg10 mi
1:56 pm96 °FPartly sunny.15 mph38%30.05 "Hg10 mi
12:56 pm95 °FScattered clouds.15 mph41%30.07 "Hg10 mi
11:56 am93 °FPassing clouds.12 mph47%30.09 "Hg10 mi
Weather by CustomWeather, © 2017

See weather overviewHow to use our weather pages